Location: La Brionne
(46.1728°N, 1.7849°E)
Time: 22:47:54
(UTC+00:00)

SPOT 1/Viking Rocket - Pass Details

Date: 16 June 2021
Orbit: 778 x 793 km, 98.4° (Epoch: 02 August)

Event Time Altitude Azimuth Distance (km) Brightness Sun altitude
Exits shadow 21:05:01 - 174° (S) 2,430 5.6 -10.6°
Reaches altitude 10° 21:05:17 10° 174° (S) 2,324 5.5 -10.7°
Maximum altitude 21:10:23 68° 257° (WSW) 839 3.8 -11.2°
Drops below altitude 10° 21:15:32 10° 341° (NNW) 2,340 7.3 -11.8°
Sets 21:17:53 0° 344° (NNW) 3,273 8.2 -12.0°
